Year,Month,Day,Hour,Minute,Value (Times are PST for temperature in C)
2014,04,14,00,00,8.40
2014,04,14,00,01,8.40
2014,04,14,00,02,8.40
2014,04,14,00,03,8.40
2014,04,14,00,04,8.30
2014,04,14,00,05,8.30
2014,04,14,00,06,8.30
2014,04,14,00,07,8.30
2014,04,14,00,08,8.30
2014,04,14,00,09,8.30
2014,04,14,00,10,8.20
2014,04,14,00,11,8.20
2014,04,14,00,12,8.20
2014,04,14,00,13,8.20
2014,04,14,00,14,8.20
2014,04,14,00,15,8.10
2014,04,14,00,16,8.10
2014,04,14,00,17,8.10
2014,04,14,00,18,8.10
2014,04,14,00,19,8.10
2014,04,14,00,20,8.00
2014,04,14,00,21,8.00
2014,04,14,00,22,8.00
2014,04,14,00,23,7.90
2014,04,14,00,24,7.90
2014,04,14,00,25,7.90
2014,04,14,00,26,7.80
2014,04,14,00,27,7.80
2014,04,14,00,28,7.80
2014,04,14,00,29,7.80
2014,04,14,00,30,7.70
2014,04,14,00,31,7.70
2014,04,14,00,32,7.70
2014,04,14,00,33,7.70
2014,04,14,00,34,7.70
2014,04,14,00,35,7.70
2014,04,14,00,36,7.70
2014,04,14,00,37,7.70
2014,04,14,00,38,7.60
2014,04,14,00,39,7.60
2014,04,14,00,40,7.60
2014,04,14,00,41,7.60
2014,04,14,00,42,7.60
2014,04,14,00,43,7.50
2014,04,14,00,44,7.50
2014,04,14,00,45,7.50
2014,04,14,00,46,7.40
2014,04,14,00,47,7.40
2014,04,14,00,48,7.40
2014,04,14,00,49,7.30
2014,04,14,00,50,7.30
2014,04,14,00,51,7.30
2014,04,14,00,52,7.30
2014,04,14,00,53,7.30
2014,04,14,00,54,7.30
2014,04,14,00,55,7.30
2014,04,14,00,56,7.30
2014,04,14,00,57,7.20
2014,04,14,00,58,7.20
2014,04,14,00,59,7.20
2014,04,14,01,00,7.20
2014,04,14,01,01,7.10
2014,04,14,01,02,7.10
2014,04,14,01,03,7.10
2014,04,14,01,04,7.10
2014,04,14,01,05,7.10
2014,04,14,01,06,7.00
2014,04,14,01,07,7.00
2014,04,14,01,08,7.00
2014,04,14,01,09,6.90
2014,04,14,01,10,6.90
2014,04,14,01,11,6.90
2014,04,14,01,12,6.80
2014,04,14,01,13,6.80
2014,04,14,01,14,6.80
2014,04,14,01,15,6.70
2014,04,14,01,16,6.70
2014,04,14,01,17,6.70
2014,04,14,01,18,6.70
2014,04,14,01,19,6.60
2014,04,14,01,20,6.60
2014,04,14,01,21,6.60
2014,04,14,01,22,6.60
2014,04,14,01,23,6.50
2014,04,14,01,24,6.50
2014,04,14,01,25,6.50
2014,04,14,01,26,6.50
2014,04,14,01,27,6.40
2014,04,14,01,28,6.40
2014,04,14,01,29,6.40
2014,04,14,01,30,6.40
2014,04,14,01,31,6.40
2014,04,14,01,32,6.30
2014,04,14,01,33,6.30
2014,04,14,01,34,6.30
2014,04,14,01,35,6.30
2014,04,14,01,36,6.30
2014,04,14,01,37,6.30
2014,04,14,01,38,6.30
2014,04,14,01,39,6.30
2014,04,14,01,40,6.30
2014,04,14,01,41,6.20
2014,04,14,01,42,6.20
2014,04,14,01,43,6.20
2014,04,14,01,44,6.20
2014,04,14,01,45,6.20
2014,04,14,01,46,6.10
2014,04,14,01,47,6.10
2014,04,14,01,48,6.10
2014,04,14,01,49,6.10
2014,04,14,01,50,6.10
2014,04,14,01,51,6.10
2014,04,14,01,52,6.10
2014,04,14,01,53,6.10
2014,04,14,01,54,6.10
2014,04,14,01,55,6.10
2014,04,14,01,56,6.10
2014,04,14,01,57,6.10
2014,04,14,01,58,6.00
2014,04,14,01,59,6.00
2014,04,14,02,00,6.00
2014,04,14,02,01,6.00
2014,04,14,02,02,5.90
2014,04,14,02,03,5.90
2014,04,14,02,04,5.90
2014,04,14,02,05,5.90
2014,04,14,02,06,5.80
2014,04,14,02,07,5.80
2014,04,14,02,08,5.80
2014,04,14,02,09,5.80
2014,04,14,02,10,5.80
2014,04,14,02,11,5.80
2014,04,14,02,12,5.80
2014,04,14,02,13,5.80
2014,04,14,02,14,5.80
2014,04,14,02,15,5.80
2014,04,14,02,16,5.80
2014,04,14,02,17,5.80
2014,04,14,02,18,5.70
2014,04,14,02,19,5.70
2014,04,14,02,20,5.70
2014,04,14,02,21,5.70
2014,04,14,02,22,5.80
2014,04,14,02,23,5.80
2014,04,14,02,24,5.80
2014,04,14,02,25,5.80
2014,04,14,02,26,5.80
2014,04,14,02,27,5.80
2014,04,14,02,28,5.80
2014,04,14,02,29,5.80
2014,04,14,02,30,5.80
2014,04,14,02,31,5.80
2014,04,14,02,32,5.80
2014,04,14,02,33,5.80
2014,04,14,02,34,5.80
2014,04,14,02,35,5.80
2014,04,14,02,36,5.80
2014,04,14,02,37,5.70
2014,04,14,02,38,5.70
2014,04,14,02,39,5.70
2014,04,14,02,40,5.70
2014,04,14,02,41,5.70
2014,04,14,02,42,5.70
2014,04,14,02,43,5.70
2014,04,14,02,44,5.70
2014,04,14,02,45,5.70
2014,04,14,02,46,5.70
2014,04,14,02,47,5.70
2014,04,14,02,48,5.70
2014,04,14,02,49,5.70
2014,04,14,02,50,5.70
2014,04,14,02,51,5.60
2014,04,14,02,52,5.60
2014,04,14,02,53,5.60
2014,04,14,02,54,5.60
2014,04,14,02,55,5.60
2014,04,14,02,56,5.60
2014,04,14,02,57,5.60
2014,04,14,02,58,5.60
2014,04,14,02,59,5.60
2014,04,14,03,00,5.60
2014,04,14,03,01,5.60
2014,04,14,03,02,5.60
2014,04,14,03,03,5.60
2014,04,14,03,06,5.50
2014,04,14,03,07,5.50
2014,04,14,03,08,5.50
2014,04,14,03,09,5.50
2014,04,14,03,10,5.50
2014,04,14,03,11,5.50
2014,04,14,03,12,5.50
2014,04,14,03,13,5.50
2014,04,14,03,14,5.50
2014,04,14,03,15,5.40
2014,04,14,03,16,5.40
2014,04,14,03,17,5.40
2014,04,14,03,18,5.40
2014,04,14,03,19,5.40
2014,04,14,03,20,5.40
2014,04,14,03,21,5.40
2014,04,14,03,22,5.40
2014,04,14,03,23,5.40
2014,04,14,03,24,5.40
2014,04,14,03,25,5.40
2014,04,14,03,26,5.40
2014,04,14,03,27,5.40
2014,04,14,03,28,5.30
2014,04,14,03,29,5.30
2014,04,14,03,30,5.30
2014,04,14,03,31,5.30
2014,04,14,03,32,5.30
2014,04,14,03,33,5.30
2014,04,14,03,34,5.30
2014,04,14,03,35,5.20
2014,04,14,03,36,5.20
2014,04,14,03,37,5.20
2014,04,14,03,38,5.20
2014,04,14,03,39,5.20
2014,04,14,03,40,5.20
2014,04,14,03,41,5.20
2014,04,14,03,42,5.20
2014,04,14,03,43,5.20
2014,04,14,03,44,5.20
2014,04,14,03,45,5.20
2014,04,14,03,46,5.20
2014,04,14,03,47,5.20
2014,04,14,03,48,5.20
2014,04,14,03,49,5.20
2014,04,14,03,50,5.20
2014,04,14,03,51,5.10
2014,04,14,03,52,5.10
2014,04,14,03,53,5.10
2014,04,14,03,54,5.10
2014,04,14,03,55,5.10
2014,04,14,03,56,5.10
2014,04,14,03,57,5.10
2014,04,14,03,58,5.10
2014,04,14,03,59,5.10
2014,04,14,04,00,5.10
2014,04,14,04,01,5.00
2014,04,14,04,02,5.00
2014,04,14,04,03,5.00
2014,04,14,04,04,5.00
2014,04,14,04,05,5.00
2014,04,14,04,06,5.00
2014,04,14,04,07,5.00
2014,04,14,04,08,5.00
2014,04,14,04,09,5.00
2014,04,14,04,10,5.00
2014,04,14,04,11,5.00
2014,04,14,04,12,5.00
2014,04,14,04,13,5.00
2014,04,14,04,14,5.00
2014,04,14,04,15,5.00
2014,04,14,04,16,5.00
2014,04,14,04,17,4.90
2014,04,14,04,18,4.90
2014,04,14,04,19,4.90
2014,04,14,04,20,4.90
2014,04,14,04,21,4.90
2014,04,14,04,22,4.80
2014,04,14,04,23,4.80
2014,04,14,04,24,4.80
2014,04,14,04,25,4.80
2014,04,14,04,26,4.80
2014,04,14,04,27,4.80
2014,04,14,04,28,4.80
2014,04,14,04,29,4.80
2014,04,14,04,30,4.70
2014,04,14,04,31,4.70
2014,04,14,04,32,4.70
2014,04,14,04,33,4.70
2014,04,14,04,34,4.60
2014,04,14,04,35,4.60
2014,04,14,04,36,4.60
2014,04,14,04,37,4.50
2014,04,14,04,38,4.50
2014,04,14,04,39,4.50
2014,04,14,04,40,4.40
2014,04,14,04,41,4.40
2014,04,14,04,42,4.40
2014,04,14,04,43,4.40
2014,04,14,04,44,4.30
2014,04,14,04,45,4.30
2014,04,14,04,46,4.30
2014,04,14,04,47,4.30
2014,04,14,04,48,4.30
2014,04,14,04,49,4.20
2014,04,14,04,50,4.20
2014,04,14,04,51,4.20
2014,04,14,04,52,4.10
2014,04,14,04,53,4.10
2014,04,14,04,54,4.10
2014,04,14,04,55,4.00
2014,04,14,04,56,4.00
2014,04,14,04,57,4.00
2014,04,14,04,58,3.90
2014,04,14,04,59,3.90
2014,04,14,05,00,3.90
2014,04,14,05,01,3.90
2014,04,14,05,02,3.90
2014,04,14,05,03,3.90
2014,04,14,05,04,3.90
2014,04,14,05,05,3.90
2014,04,14,05,06,3.90
2014,04,14,05,07,3.90
2014,04,14,05,08,3.90
2014,04,14,05,09,3.90
2014,04,14,05,10,3.90
2014,04,14,05,11,3.90
2014,04,14,05,12,3.90
2014,04,14,05,13,3.90
2014,04,14,05,14,3.90
2014,04,14,05,15,3.90
2014,04,14,05,16,3.90
2014,04,14,05,17,3.90
2014,04,14,05,18,3.90
2014,04,14,05,19,3.90
2014,04,14,05,20,3.90
2014,04,14,05,21,3.90
2014,04,14,05,22,3.90
2014,04,14,05,23,3.90
2014,04,14,05,24,3.90
2014,04,14,05,25,3.90
2014,04,14,05,26,3.90
2014,04,14,05,27,3.90
2014,04,14,05,28,3.90
2014,04,14,05,29,3.90
2014,04,14,05,30,3.80
2014,04,14,05,31,3.80
2014,04,14,05,32,3.80
2014,04,14,05,33,3.80
2014,04,14,05,34,3.80
2014,04,14,05,35,3.70
2014,04,14,05,36,3.70
2014,04,14,05,37,3.70
2014,04,14,05,38,3.70
2014,04,14,05,39,3.70
2014,04,14,05,40,3.70
2014,04,14,05,41,3.60
2014,04,14,05,42,3.60
2014,04,14,05,43,3.60
2014,04,14,05,44,3.60
2014,04,14,05,45,3.60
2014,04,14,05,46,3.60
2014,04,14,05,47,3.50
2014,04,14,05,48,3.50
2014,04,14,05,49,3.40
2014,04,14,05,50,3.40
2014,04,14,05,51,3.40
2014,04,14,05,52,3.40
2014,04,14,05,53,3.30
2014,04,14,05,54,3.30
2014,04,14,05,55,3.40
2014,04,14,05,56,3.40
2014,04,14,05,57,3.40
2014,04,14,05,58,3.40
2014,04,14,05,59,3.40
2014,04,14,06,00,3.40
2014,04,14,06,01,3.40
2014,04,14,06,02,3.40
2014,04,14,06,03,3.50
2014,04,14,06,04,3.50
2014,04,14,06,05,3.50
2014,04,14,06,06,3.50
2014,04,14,06,07,3.50
2014,04,14,06,08,3.50
2014,04,14,06,09,3.50
2014,04,14,06,10,3.40
2014,04,14,06,11,3.40
2014,04,14,06,12,3.40
2014,04,14,06,13,3.40
2014,04,14,06,14,3.40
2014,04,14,06,15,3.40
2014,04,14,06,16,3.40
2014,04,14,06,17,3.40
2014,04,14,06,18,3.30
2014,04,14,06,19,3.30
2014,04,14,06,20,3.30
2014,04,14,06,21,3.30
2014,04,14,06,22,3.30
2014,04,14,06,23,3.30
2014,04,14,06,24,3.30
2014,04,14,06,25,3.20
2014,04,14,06,26,3.20
2014,04,14,06,27,3.20
2014,04,14,06,28,3.20
2014,04,14,06,29,3.20
2014,04,14,06,30,3.20
2014,04,14,06,31,3.20
2014,04,14,06,32,3.20
2014,04,14,06,33,3.20
2014,04,14,06,34,3.20
2014,04,14,06,35,3.20
2014,04,14,06,36,3.20
2014,04,14,06,37,3.10
2014,04,14,06,38,3.10
2014,04,14,06,39,3.10
2014,04,14,06,40,3.20
2014,04,14,06,41,3.20
2014,04,14,06,42,3.20
2014,04,14,06,43,3.20
2014,04,14,06,44,3.20
2014,04,14,06,45,3.20
2014,04,14,06,46,3.20
2014,04,14,06,47,3.20
2014,04,14,06,48,3.20
2014,04,14,06,49,3.20
2014,04,14,06,50,3.20
2014,04,14,06,51,3.20
2014,04,14,06,52,3.20
2014,04,14,06,53,3.30
2014,04,14,06,54,3.30
2014,04,14,06,55,3.30
2014,04,14,06,56,3.30
2014,04,14,06,57,3.30
2014,04,14,06,58,3.30
2014,04,14,06,59,3.30
2014,04,14,07,00,3.30
2014,04,14,07,01,3.30
2014,04,14,07,02,3.30
2014,04,14,07,03,3.30
2014,04,14,07,04,3.30
2014,04,14,07,05,3.30
2014,04,14,07,06,3.30
2014,04,14,07,07,3.30
2014,04,14,07,08,3.40
2014,04,14,07,09,3.40
2014,04,14,07,10,3.40
2014,04,14,07,11,3.40
2014,04,14,07,12,3.40
2014,04,14,07,13,3.40
2014,04,14,07,14,3.40
2014,04,14,07,15,3.40
2014,04,14,07,16,3.40
2014,04,14,07,17,3.40
2014,04,14,07,18,3.40
2014,04,14,07,19,3.40
2014,04,14,07,20,3.40
2014,04,14,07,21,3.40
2014,04,14,07,22,3.40
2014,04,14,07,23,3.40
2014,04,14,07,24,3.40
2014,04,14,07,25,3.40
2014,04,14,07,26,3.40
2014,04,14,07,27,3.50
2014,04,14,07,28,3.50
2014,04,14,07,29,3.50
2014,04,14,07,30,3.50
2014,04,14,07,31,3.50
2014,04,14,07,32,3.50
2014,04,14,07,33,3.50
2014,04,14,07,34,3.50
2014,04,14,07,35,3.60
2014,04,14,07,36,3.50
2014,04,14,07,37,3.60
2014,04,14,07,38,3.60
2014,04,14,07,39,3.60
2014,04,14,07,40,3.60
2014,04,14,07,41,3.60
2014,04,14,07,42,3.60
2014,04,14,07,43,3.60
2014,04,14,07,44,3.60
2014,04,14,07,45,3.70
2014,04,14,07,46,3.70
2014,04,14,07,47,3.70
2014,04,14,07,48,3.70
2014,04,14,07,49,3.70
2014,04,14,07,50,3.70
2014,04,14,07,51,3.70
2014,04,14,07,52,3.70
2014,04,14,07,53,3.80
2014,04,14,07,54,3.80
2014,04,14,07,55,3.80
2014,04,14,07,56,3.80
2014,04,14,07,57,3.80
2014,04,14,07,58,3.80
2014,04,14,07,59,3.80
2014,04,14,08,00,3.80
2014,04,14,08,01,3.80
2014,04,14,08,02,3.80
2014,04,14,08,03,3.80
2014,04,14,08,04,3.80
2014,04,14,08,05,3.80
2014,04,14,08,06,3.80
2014,04,14,08,07,3.80
2014,04,14,08,08,3.80
2014,04,14,08,09,3.80
2014,04,14,08,10,3.80
2014,04,14,08,11,3.80
2014,04,14,08,12,3.80
2014,04,14,08,13,3.80
2014,04,14,08,14,3.90
2014,04,14,08,15,3.90
2014,04,14,08,16,3.90
2014,04,14,08,17,3.90
2014,04,14,08,18,4.00
2014,04,14,08,19,4.00
2014,04,14,08,20,4.00
2014,04,14,08,21,4.00
2014,04,14,08,22,4.10
2014,04,14,08,23,4.10
2014,04,14,08,24,4.10
2014,04,14,08,25,4.10
2014,04,14,08,26,4.10
2014,04,14,08,27,4.20
2014,04,14,08,28,4.20
2014,04,14,08,29,4.20
2014,04,14,08,30,4.20
2014,04,14,08,31,4.20
2014,04,14,08,32,4.30
2014,04,14,08,33,4.30
2014,04,14,08,34,4.30
2014,04,14,08,35,4.30
2014,04,14,08,36,4.40
2014,04,14,08,37,4.40
2014,04,14,08,38,4.40
2014,04,14,08,39,4.50
2014,04,14,08,40,4.50
2014,04,14,08,41,4.50
2014,04,14,08,42,4.60
2014,04,14,08,43,4.60
2014,04,14,08,44,4.70
2014,04,14,08,45,4.70
2014,04,14,08,46,4.80
2014,04,14,08,47,4.80
2014,04,14,08,48,4.90
2014,04,14,08,49,4.90
2014,04,14,08,50,4.90
2014,04,14,08,51,5.00
2014,04,14,08,52,5.00
2014,04,14,08,53,5.10
2014,04,14,08,54,5.10
2014,04,14,08,55,5.10
2014,04,14,08,56,5.20
2014,04,14,08,57,5.20
2014,04,14,08,58,5.30
2014,04,14,08,59,5.30
2014,04,14,09,00,5.30
2014,04,14,09,01,5.30
2014,04,14,09,02,5.30
2014,04,14,09,03,5.40
2014,04,14,09,04,5.40
2014,04,14,09,05,5.40
2014,04,14,09,06,5.40
2014,04,14,09,07,5.40
2014,04,14,09,08,5.40
2014,04,14,09,09,5.40
2014,04,14,09,10,5.40
2014,04,14,09,11,5.40
2014,04,14,09,12,5.40
2014,04,14,09,13,5.50
2014,04,14,09,14,5.50
2014,04,14,09,15,5.50
2014,04,14,09,16,5.50
2014,04,14,09,17,5.50
2014,04,14,09,18,5.40
2014,04,14,09,19,5.40
2014,04,14,09,20,5.50
2014,04,14,09,21,5.50
2014,04,14,09,22,5.50
2014,04,14,09,23,5.50
2014,04,14,09,24,5.50
2014,04,14,09,25,5.50
2014,04,14,09,26,5.60
2014,04,14,09,27,5.60
2014,04,14,09,28,5.70
2014,04,14,09,29,5.70
2014,04,14,09,30,5.80
2014,04,14,09,31,5.90
2014,04,14,09,32,6.00
2014,04,14,09,33,6.10
2014,04,14,09,34,6.20
2014,04,14,09,35,6.30
2014,04,14,09,36,6.40
2014,04,14,09,37,6.50
2014,04,14,09,38,6.60
2014,04,14,09,39,6.70
2014,04,14,09,40,6.80
2014,04,14,09,41,6.80
2014,04,14,09,42,6.90
2014,04,14,09,43,7.00
2014,04,14,09,44,7.10
2014,04,14,09,45,7.20
2014,04,14,09,46,7.30
2014,04,14,09,47,7.30
2014,04,14,09,48,7.40
2014,04,14,09,49,7.40
2014,04,14,09,50,7.40
2014,04,14,09,51,7.50
2014,04,14,09,52,7.50
2014,04,14,09,53,7.60
2014,04,14,09,54,7.60
2014,04,14,09,55,7.70
2014,04,14,09,56,7.70
2014,04,14,09,57,7.80
2014,04,14,09,58,7.90
2014,04,14,09,59,8.00
2014,04,14,10,00,8.10
2014,04,14,10,01,8.10
2014,04,14,10,02,8.20
2014,04,14,10,03,8.30
2014,04,14,10,04,8.40
2014,04,14,10,05,8.50
2014,04,14,10,06,8.60
2014,04,14,10,07,8.60
2014,04,14,10,08,8.70
2014,04,14,10,09,8.80
2014,04,14,10,10,8.80
2014,04,14,10,11,8.90
2014,04,14,10,12,8.90
2014,04,14,10,13,8.90
2014,04,14,10,14,9.00
2014,04,14,10,15,9.00
2014,04,14,10,16,9.00
2014,04,14,10,17,9.00
2014,04,14,10,18,9.10
2014,04,14,10,19,9.10
2014,04,14,10,20,9.20
2014,04,14,10,21,9.30
2014,04,14,10,22,9.40
2014,04,14,10,23,9.50
2014,04,14,10,24,9.60
2014,04,14,10,25,9.60
2014,04,14,10,26,9.50
2014,04,14,10,27,9.50
2014,04,14,10,28,9.60
2014,04,14,10,29,9.60
2014,04,14,10,30,9.70
2014,04,14,10,31,9.80
2014,04,14,10,32,9.90
2014,04,14,10,33,9.90
2014,04,14,10,34,10.00
2014,04,14,10,35,10.10
2014,04,14,10,36,10.20
2014,04,14,10,37,10.20
2014,04,14,10,38,10.30
2014,04,14,10,39,10.30
2014,04,14,10,40,10.40
2014,04,14,10,41,10.40
2014,04,14,10,42,10.40
2014,04,14,10,43,10.50
2014,04,14,10,44,10.50
2014,04,14,10,45,10.50
2014,04,14,10,46,10.60
2014,04,14,10,47,10.70
2014,04,14,10,48,10.70
2014,04,14,10,49,10.70
2014,04,14,10,50,10.70
2014,04,14,10,51,10.70
2014,04,14,10,52,10.70
2014,04,14,10,53,10.70
2014,04,14,10,54,10.70
2014,04,14,10,55,10.80
2014,04,14,10,56,10.80
2014,04,14,10,57,10.80
2014,04,14,10,58,10.90
2014,04,14,10,59,10.90
2014,04,14,11,00,10.90
2014,04,14,11,01,10.90
2014,04,14,11,02,10.90
2014,04,14,11,03,11.00
2014,04,14,11,04,11.00
2014,04,14,11,05,11.10
2014,04,14,11,06,11.20
2014,04,14,11,07,11.30
2014,04,14,11,08,11.30
2014,04,14,11,09,11.40
2014,04,14,11,10,11.50
2014,04,14,11,11,11.60
2014,04,14,11,12,11.70
2014,04,14,11,13,11.80
2014,04,14,11,14,11.80
2014,04,14,11,15,11.80
2014,04,14,11,16,11.80
2014,04,14,11,17,11.80
2014,04,14,11,18,11.80
2014,04,14,11,19,11.90
2014,04,14,11,20,11.90
2014,04,14,11,21,12.00
2014,04,14,11,22,12.10
2014,04,14,11,23,12.10
2014,04,14,11,24,12.20
2014,04,14,11,25,12.20
2014,04,14,11,26,12.30
2014,04,14,11,27,12.30
2014,04,14,11,28,12.40
2014,04,14,11,29,12.50
2014,04,14,11,30,12.40
2014,04,14,11,31,12.40
2014,04,14,11,32,12.40
2014,04,14,11,33,12.30
2014,04,14,11,34,12.30
2014,04,14,11,35,12.30
2014,04,14,11,36,12.40
2014,04,14,11,37,12.50
2014,04,14,11,38,12.60
2014,04,14,11,39,12.70
2014,04,14,11,40,12.80
2014,04,14,11,41,12.80
2014,04,14,11,42,12.80
2014,04,14,11,43,12.90
2014,04,14,11,44,12.90
2014,04,14,11,45,13.00
2014,04,14,11,46,13.00
2014,04,14,11,47,13.00
2014,04,14,11,48,13.20
2014,04,14,11,49,13.30
2014,04,14,11,50,13.40
2014,04,14,11,51,13.40
2014,04,14,11,52,13.40
2014,04,14,11,53,13.40
2014,04,14,11,54,13.50
2014,04,14,11,55,13.50
2014,04,14,11,56,13.50
2014,04,14,11,57,13.60
2014,04,14,11,58,13.70
2014,04,14,11,59,13.80
2014,04,14,12,00,13.90
2014,04,14,12,01,14.00
2014,04,14,12,02,14.10
2014,04,14,12,03,14.10
2014,04,14,12,04,14.20
2014,04,14,12,05,14.30
2014,04,14,12,06,14.30
2014,04,14,12,07,14.30
2014,04,14,12,08,14.40
2014,04,14,12,09,14.40
2014,04,14,12,10,14.50
2014,04,14,12,11,14.50
2014,04,14,12,12,14.60
2014,04,14,12,13,14.60
2014,04,14,12,14,14.70
2014,04,14,12,15,14.70
2014,04,14,12,16,14.70
2014,04,14,12,17,14.80
2014,04,14,12,18,14.80
2014,04,14,12,19,14.80
2014,04,14,12,20,14.80
2014,04,14,12,21,14.70
2014,04,14,12,22,14.70
2014,04,14,12,23,14.60
2014,04,14,12,24,14.60
2014,04,14,12,25,14.70
2014,04,14,12,26,14.70
2014,04,14,12,27,14.70
2014,04,14,12,28,14.80
2014,04,14,12,29,14.90
2014,04,14,12,30,14.90
2014,04,14,12,31,15.00
2014,04,14,12,32,15.10
2014,04,14,12,33,15.20
2014,04,14,12,34,15.30
2014,04,14,12,35,15.30
2014,04,14,12,36,15.40
2014,04,14,12,37,15.50
2014,04,14,12,38,15.60
2014,04,14,12,39,15.60
2014,04,14,12,40,15.70
2014,04,14,12,41,15.70
2014,04,14,12,42,15.90
2014,04,14,12,43,16.00
2014,04,14,12,44,16.10
2014,04,14,12,45,16.20
2014,04,14,12,46,16.20
2014,04,14,12,47,16.30
2014,04,14,12,48,16.50
2014,04,14,12,49,16.70
2014,04,14,12,50,16.80
2014,04,14,12,51,16.90
2014,04,14,12,52,17.00
2014,04,14,12,53,17.10
2014,04,14,12,54,17.10
2014,04,14,12,55,17.10
2014,04,14,12,56,17.10
2014,04,14,12,57,17.10
2014,04,14,12,58,17.20
2014,04,14,12,59,17.20
2014,04,14,13,00,17.10
2014,04,14,13,01,17.10
2014,04,14,13,02,17.20
2014,04,14,13,03,17.30
2014,04,14,13,04,17.20
2014,04,14,13,05,17.10
2014,04,14,13,06,17.10
2014,04,14,13,07,17.20
2014,04,14,13,08,17.20
2014,04,14,13,09,17.20
2014,04,14,13,10,17.20
2014,04,14,13,11,17.20
2014,04,14,13,12,17.20
2014,04,14,13,13,17.00
2014,04,14,13,14,16.90
2014,04,14,13,15,16.80
2014,04,14,13,16,16.80
2014,04,14,13,17,16.70
2014,04,14,13,18,16.70
2014,04,14,13,19,16.70
2014,04,14,13,20,16.70
2014,04,14,13,21,16.50
2014,04,14,13,22,16.40
2014,04,14,13,23,16.40
2014,04,14,13,24,16.40
2014,04,14,13,25,16.30
2014,04,14,13,26,16.20
2014,04,14,13,27,16.10
2014,04,14,13,28,16.20
2014,04,14,13,29,16.20
2014,04,14,13,30,16.20
2014,04,14,13,31,16.10
2014,04,14,13,32,16.00
2014,04,14,13,33,16.00
2014,04,14,13,34,15.90
2014,04,14,13,35,15.90
2014,04,14,13,36,15.80
2014,04,14,13,37,15.90
2014,04,14,13,38,15.80
2014,04,14,13,39,15.80
2014,04,14,13,40,15.80
2014,04,14,13,41,15.80
2014,04,14,13,42,15.80
2014,04,14,13,43,15.80
2014,04,14,13,44,15.80
2014,04,14,13,45,15.70
2014,04,14,13,46,15.70
2014,04,14,13,47,15.80
2014,04,14,13,48,15.70
2014,04,14,13,49,15.60
2014,04,14,13,50,15.50
2014,04,14,13,51,15.60
2014,04,14,13,52,15.60
2014,04,14,13,53,15.50
2014,04,14,13,54,15.50
2014,04,14,13,55,15.40
2014,04,14,13,56,15.40
2014,04,14,13,57,15.50
2014,04,14,13,58,15.50
2014,04,14,13,59,15.50
2014,04,14,14,00,15.50
2014,04,14,14,01,15.50
2014,04,14,14,02,15.60
2014,04,14,14,03,15.60
2014,04,14,14,04,15.60
2014,04,14,14,05,15.60
2014,04,14,14,06,15.60
2014,04,14,14,07,15.60
2014,04,14,14,08,15.60
2014,04,14,14,09,15.60
2014,04,14,14,10,15.60
2014,04,14,14,11,15.70
2014,04,14,14,12,15.60
2014,04,14,14,13,15.50
2014,04,14,14,14,15.40
2014,04,14,14,15,15.30
2014,04,14,14,16,15.20
2014,04,14,14,17,15.10
2014,04,14,14,18,15.10
2014,04,14,14,19,15.10
2014,04,14,14,20,15.10
2014,04,14,14,21,15.10
2014,04,14,14,22,15.10
2014,04,14,14,23,15.10
2014,04,14,14,24,15.10
2014,04,14,14,25,15.10
2014,04,14,14,26,15.10
2014,04,14,14,27,15.10
2014,04,14,14,28,15.20
2014,04,14,14,29,15.40
2014,04,14,14,30,15.50
2014,04,14,14,31,15.50
2014,04,14,14,32,15.40
2014,04,14,14,33,15.40
2014,04,14,14,34,15.30
2014,04,14,14,35,15.20
2014,04,14,14,36,15.20
2014,04,14,14,37,15.20
2014,04,14,14,38,15.20
2014,04,14,14,39,15.10
2014,04,14,14,40,15.10
2014,04,14,14,41,15.20
2014,04,14,14,42,15.30
2014,04,14,14,43,15.40
2014,04,14,14,44,15.40
2014,04,14,14,45,15.50
2014,04,14,14,46,15.50
2014,04,14,14,47,15.60
2014,04,14,14,48,15.50
2014,04,14,14,49,15.50
2014,04,14,14,50,15.50
2014,04,14,14,51,15.50
2014,04,14,14,52,15.60
2014,04,14,14,53,15.60
2014,04,14,14,54,15.70
2014,04,14,14,55,15.70
2014,04,14,14,56,15.70
2014,04,14,14,57,15.70
2014,04,14,14,58,15.60
2014,04,14,14,59,15.70
2014,04,14,15,00,15.60
2014,04,14,15,01,15.50
2014,04,14,15,02,15.50
2014,04,14,15,03,15.40
2014,04,14,15,04,15.50
2014,04,14,15,05,15.50
2014,04,14,15,06,15.60
2014,04,14,15,07,15.60
2014,04,14,15,08,15.70
2014,04,14,15,09,15.60
2014,04,14,15,10,15.60
2014,04,14,15,11,15.60
2014,04,14,15,12,15.60
2014,04,14,15,13,15.60
2014,04,14,15,14,15.60
2014,04,14,15,15,15.50
2014,04,14,15,16,15.50
2014,04,14,15,17,15.40
2014,04,14,15,18,15.30
2014,04,14,15,19,15.30
2014,04,14,15,20,15.30
2014,04,14,15,21,15.30
2014,04,14,15,22,15.30
2014,04,14,15,23,15.30
2014,04,14,15,24,15.30
2014,04,14,15,25,15.30
2014,04,14,15,26,15.30
2014,04,14,15,27,15.20
2014,04,14,15,28,15.20
2014,04,14,15,29,15.20
2014,04,14,15,30,15.30
2014,04,14,15,31,15.30
2014,04,14,15,32,15.30
2014,04,14,15,33,15.20
2014,04,14,15,34,15.10
2014,04,14,15,35,15.10
2014,04,14,15,36,15.10
2014,04,14,15,37,15.00
2014,04,14,15,38,15.00
2014,04,14,15,39,15.00
2014,04,14,15,40,15.00
2014,04,14,15,41,15.00
2014,04,14,15,42,15.00
2014,04,14,15,43,15.00
2014,04,14,15,44,15.00
2014,04,14,15,45,15.00
2014,04,14,15,46,15.10
2014,04,14,15,47,15.00
2014,04,14,15,48,15.00
2014,04,14,15,49,14.90
2014,04,14,15,50,14.90
2014,04,14,15,51,15.00
2014,04,14,15,52,15.10
2014,04,14,15,53,15.10
2014,04,14,15,54,15.20
2014,04,14,15,55,15.30
2014,04,14,15,56,15.30
2014,04,14,15,57,15.30
2014,04,14,15,58,15.20
2014,04,14,15,59,15.20
2014,04,14,16,00,15.10
2014,04,14,16,01,15.10
2014,04,14,16,02,15.00
2014,04,14,16,03,14.90
2014,04,14,16,04,14.80
2014,04,14,16,05,14.80
2014,04,14,16,06,14.80
2014,04,14,16,07,14.90
2014,04,14,16,08,15.00
2014,04,14,16,09,15.00
2014,04,14,16,10,15.00
2014,04,14,16,11,14.90
2014,04,14,16,12,14.80
2014,04,14,16,13,14.80
2014,04,14,16,14,14.90
2014,04,14,16,15,15.00
2014,04,14,16,16,15.10
2014,04,14,16,17,15.00
2014,04,14,16,18,14.90
2014,04,14,16,19,14.90
2014,04,14,16,20,14.90
2014,04,14,16,21,14.90
2014,04,14,16,22,14.90
2014,04,14,16,23,14.90
2014,04,14,16,24,14.80
2014,04,14,16,25,14.80
2014,04,14,16,26,14.80
2014,04,14,16,27,14.90
2014,04,14,16,28,14.90
2014,04,14,16,29,15.00
2014,04,14,16,30,14.90
2014,04,14,16,31,15.00
2014,04,14,16,32,15.00
2014,04,14,16,33,14.90
2014,04,14,16,34,14.90
2014,04,14,16,35,14.90
2014,04,14,16,36,15.00
2014,04,14,16,37,15.00
2014,04,14,16,38,15.00
2014,04,14,16,39,15.00
2014,04,14,16,40,15.00
2014,04,14,16,41,15.00
2014,04,14,16,42,15.10
2014,04,14,16,43,15.10
2014,04,14,16,44,15.10
2014,04,14,16,45,15.00
2014,04,14,16,46,14.90
2014,04,14,16,47,14.80
2014,04,14,16,48,14.70
2014,04,14,16,49,14.60
2014,04,14,16,50,14.50
2014,04,14,16,51,14.50
2014,04,14,16,52,14.50
2014,04,14,16,53,14.40
2014,04,14,16,54,14.40
2014,04,14,16,55,14.40
2014,04,14,16,56,14.40
2014,04,14,16,57,14.40
2014,04,14,16,58,14.30
2014,04,14,16,59,14.30
2014,04,14,17,00,14.30
2014,04,14,17,01,14.30
2014,04,14,17,02,14.30
2014,04,14,17,03,14.30
2014,04,14,17,04,14.30
2014,04,14,17,05,14.20
2014,04,14,17,06,14.20
2014,04,14,17,07,14.30
2014,04,14,17,08,14.40
2014,04,14,17,09,14.40
2014,04,14,17,10,14.50
2014,04,14,17,11,14.60
2014,04,14,17,12,14.50
2014,04,14,17,13,14.50
2014,04,14,17,14,14.40
2014,04,14,17,15,14.40
2014,04,14,17,16,14.30
2014,04,14,17,17,14.20
2014,04,14,17,18,14.10
2014,04,14,17,19,14.10
2014,04,14,17,20,14.10
2014,04,14,17,21,14.10
2014,04,14,17,22,14.10
2014,04,14,17,23,14.20
2014,04,14,17,24,14.30
2014,04,14,17,25,14.30
2014,04,14,17,26,14.20
2014,04,14,17,27,14.20
2014,04,14,17,28,14.10
2014,04,14,17,29,14.00
2014,04,14,17,30,14.00
2014,04,14,17,31,13.90
2014,04,14,17,32,13.90
2014,04,14,17,33,13.80
2014,04,14,17,34,13.80
2014,04,14,17,35,13.80
2014,04,14,17,36,13.80
2014,04,14,17,37,13.80
2014,04,14,17,38,13.70
2014,04,14,17,39,13.70
2014,04,14,17,40,13.70
2014,04,14,17,41,13.70
2014,04,14,17,42,13.70
2014,04,14,17,43,13.70
2014,04,14,17,44,13.60
2014,04,14,17,45,13.60
2014,04,14,17,46,13.60
2014,04,14,17,47,13.60
2014,04,14,17,48,13.50